Regional Weather Roundup
Issued by NWS

Home | Current Version | Previous Version | Text Only | Print | Product List | Glossary On
Versions: 1 2 3 4 5 6 7 8 9 10 11 12 13 14 15 16 17 18 19 20 21 22 23 24 25 26 27 28 29 30 31 32 33 34 35 36 37 38 39 40 41 42 43 44 45 46 47 48 49 50
000
ASUS44 KFWD 252315
RWRTX
NORTH TEXAS HOURLY WEATHER ROUNDUP
NATIONAL WEATHER SERVICE FORT WORTH TX
600 PM CDT SUN JUN 25 2017

NOTE: "FAIR" INDICATES FEW OR NO CLOUDS BELOW 12,000 FEET WITH NO
SIGNIFICANT WEATHER AND/OR OBSTRUCTIONS TO VISIBILITY.

TXZ118-119-260000-
DALLAS/FORT WORTH METROPLEX

CITY           SKY/WX    TMP DP  RH WIND       PRES   REMARKS
DFW AIRPORT    PTSUNNY   87  65  47 SE10      30.10F
DALLAS LOVE    PTSUNNY   87  60  40 E12       30.11F
FTW MEACHAM    MOSUNNY   86  66  51 E8G16     30.11F
DAL-EXECUTIVE  SUNNY     86  65  49 E12       30.11F
FTW-ALLIANCE   PTSUNNY   86  64  47 E10       30.11F
FTW-NAS-JRB      N/A    N/A N/A N/A MISG      30.11F
FTW-SPINKS     MOSUNNY   86  66  51 NE7       30.13F
ARLINGTON      SUNNY     85  65  51 E9        30.12F
GRAND PRAIRIE  MOSUNNY   84  63  48 NE7       30.13F
ADDISON        SUNNY     84  61  45 NE9       30.13F
MESQUITE       MOSUNNY   84  64  51 NE3       30.12F
LANCASTER      MOSUNNY   83  66  55 E8        30.13F
$$

TXZ091>094-102>105-117-120-121-131>134-260000-
NORTH CENTRAL TEXAS

CITY           SKY/WX    TMP DP  RH WIND       PRES   REMARKS
SHRMAN/DENISON MOSUNNY   83  57  41 E9        30.15F
GAINESVILLE    PTSUNNY   82  61  48 SE9       30.16F
BOWIE          PTSUNNY   82  64  56 CALM      30.15F
BRIDGEPORT     SUNNY     85  61  44 E8        30.15F
DECATUR        MOSUNNY   84  61  46 E10       30.14F
DENTON         MOSUNNY   85  64  49 SE8       30.11F
MCKINNEY       MOSUNNY   84  64  50 SE10      30.13F
BONHAM         MOSUNNY   84  59  42 E9        30.15F
GREENVILLE     SUNNY     88  59  37 NE5       30.14F
ROCKWALL       SUNNY     84  62  47 NE6       30.13F
TERRELL        SUNNY     86  60  41 E12       30.13F
WAXAHACHIE     PTSUNNY   82  69  64 E7        30.13F
GRANBURY       MOSUNNY   86  68  55 E7        30.12F
$$

TXZ083>090-098>101-113>116-127>130-139>142-154-155-260000-
WESTERN NORTH TEXAS

CITY           SKY/WX    TMP DP  RH WIND       PRES   REMARKS
WICHITA FALLS  SUNNY     84  60  44 SE10      30.13F
WF-KICKAPOO    MOSUNNY   85  60  42 SE9G18    30.16F
VERNON         MOSUNNY   84  57  38 SE8       30.16F
ABILENE        SUNNY     83  64  52 E12       30.15F
ABILENE-DYESS  MOSUNNY   85  66  52 E6        30.13F
GRAHAM         MOSUNNY   84  65  52 E6        30.12F
BRECKENRIDGE   PTSUNNY   86  64  47 E7        30.13F
CISCO          MOSUNNY   82  66  57 VRB6G12   30.15F
EASTLAND       PTSUNNY   82  67  61 E7        30.14F
MINERAL WELLS  MOSUNNY   84  64  50 E9        30.11F
STEPHENVILLE   MOSUNNY   82  68  62 E9        30.15F
COMANCHE       MOSUNNY   85  69  58 E8        30.13F
BROWNWOOD      MOSUNNY   84  68  58 E10       30.12F
COLEMAN        MOSUNNY   84  64  50 NE9       30.14F
$$

TXZ143>147-156>162-174-175-260000-
CENTRAL TEXAS

CITY           SKY/WX    TMP DP  RH WIND       PRES   REMARKS
WACO           MOSUNNY   85  72  65 NE9       30.10F HX  91
WACO-TSTC      MOSUNNY   84  72  65 NE8       30.10F
WACO-MCGREGOR  MOSUNNY   84  72  67 E13       30.10F THUNDER
HILLSBORO      SUNNY     83  71  66 NE10      30.12F
MEXIA          PTSUNNY   83  70  64 NE8       30.10F
HEARNE         CLOUDY    80  75  85 SE3       30.10S
CAMERON        MOSUNNY   87  71  58 E6        30.08F HX  92
TEMPLE         PTSUNNY   85  72  65 E13       30.10F HX  91
KILLEEN        MOSUNNY   81  71  71 E8        30.10F
KILLEEN-SKYLRK MOSUNNY   82  74  76 E8        30.11F
FORT HOOD      SUNNY     83  69  64 E9        30.08F
HAMILTON       MOSUNNY   86  69  57 E10       30.13F HX  90
LAMPASAS       PTSUNNY   82  73  74 E12       30.11F
$$

TXZ095>097-106>112-122>126-135>138-148>153-164>167-260000-
EAST TEXAS

CITY           SKY/WX    TMP DP  RH WIND       PRES   REMARKS
PARIS            N/A     84  62  47 NE8       30.15F
SULPHUR SPRNGS   N/A     83  58  41 E7        30.16F
MOUNT PLEASANT SUNNY     85  58  39 E7        30.15F
GILMER         SUNNY     82  59  45 E5        30.15F
MINEOLA        SUNNY     82  61  47 E5        30.14F
TYLER          MOSUNNY   84  67  56 E9        30.13F
LONGVIEW       MOSUNNY   83  66  56 VRB7      30.13F
MARSHALL       SUNNY     80  62  54 NE5       30.17F
PALESTINE      MOSUNNY   83  71  65 NE9       30.12F
JACKSONVILLE   MOSUNNY   82  70  68 NE8       30.15F
HENDERSON      SUNNY     82  69  63 NE9       30.14F
CENTER         MOCLDY    83  70  65 NE6       30.14F
NACOGDOCHES    PTSUNNY   82  72  69 MISG      30.09F
LUFKIN         PTSUNNY   83  71  67 NE9       30.10S
$$

SUPPLEMENTAL OBSERVATIONS (NWS FORT WORTH AREA)

CITY           SKY/WX    TMP DP  RH WIND       PRES   REMARKS
DENISON DAM      N/A     82  55  39 E8          N/A
CADDO GRASSLND   N/A     84  59  42 E5          N/A
PAT MAYSE LAKE   N/A     84  46  26 NE6         N/A
GREENVILLE       N/A     84  59  42 E7          N/A
CEDAR HILL       N/A     88  68  51 E3G13       N/A  HX  91
LBJ GRASSLAND    N/A     84  59  42 E7          N/A
POSSUM KINGDOM   N/A     86  66  51 E8          N/A
GRANBURY         N/A     86  68  54 E8          N/A
COMANCHE         N/A     84  66  54 E9          N/A
MCGREGOR         N/A     84  68  58 NE10        N/A
TEMPLE           N/A     84  70  61 E7          N/A
LAKE LIMESTONE   N/A     84  68  58 NE8         N/A
ATHENS           N/A     84  66  54 E6          N/A
$$

SUPPLEMENTAL OBSERVATIONS (NWS NORMAN AREA)

CITY           SKY/WX    TMP DP  RH WIND       PRES   REMARKS
GOODLETT         N/A     83  60  45 SE12      30.16F
CROWELL          N/A     83  62  48 S6        30.16F
KNOX CITY        N/A     83  61  47 E7        30.16F
SEYMOUR          N/A     84  62  47 E9        30.15F
MILLERS CREEK    N/A     82  63  51 E7          N/A
$$

SUPPLEMENTAL OBSERVATIONS (NWS SAN ANGELO AREA)

CITY           SKY/WX    TMP DP  RH WIND       PRES   REMARKS
WEINERT          N/A     82  64  54 E6        30.16F
HASKELL          N/A     83  62  48 E5        30.15F
THROCKMORTON     N/A     83  66  56 SE8       30.15F
STAMFORD         N/A     86  64  48 SE14      30.15F
CLYDE            N/A     82  64  53 E13       30.17F
HAMBY            N/A     84  64  51 E9          N/A
IVIE RESERVOIR   N/A     88  66  48 E13         N/A  HX  90
COLORADO BEND    N/A     82  68  61 SE6G15      N/A
$$

SUPPLEMENTAL OBSERVATIONS (NWS SHREVEPORT AREA)

CITY           SKY/WX    TMP DP  RH WIND       PRES   REMARKS
CLARKSVILLE      N/A     86  57  37 E6          N/A
TEXARKANA        N/A     86  63  45 NE3         N/A
LINDEN           N/A     82  57  42 SE5         N/A
CADDO LAKE       N/A     82  63  51 E5          N/A
GILMER           N/A     84  59  42 E6          N/A
HENDERSON        N/A     82  68  61 NE9         N/A
LUFKIN           N/A     84  70  61 MISG        N/A
N SABINE NF      N/A     82  72  69 MISG        N/A
S SABINE NF      N/A     82  68  61 NE5         N/A
$$

SUPPLEMENTAL OBSERVATIONS ARE A COLLECTION OF AUTOMATED INSTRUMENTS
THAT ARE MAINTAINED BY A VARIETY OF FEDERAL AND STATE AGENCIES.
CERTAIN ELEMENTS...SUCH AS HUMIDITY VALUES AND SUSTAINED WIND
SPEEDS...MAY BE APPROXIMATED.





USA.gov is the U.S. government's official web portal to all federal, state and local government web resources and services.